TimeCST,TemperatureF,Dew PointF,Humidity,Sea Level PressureIn,VisibilityMPH,Wind Direction,Wind SpeedMPH,Gust SpeedMPH,PrecipitationIn,Events,Conditions,WindDirDegrees,DateUTC
12:53 AM,24.1,19.9,84,30.14,10.0,NE,4.6,-,0.00,,Overcast,40,2012-12-28 06:53:00
1:53 AM,24.1,19.9,84,30.14,9.0,NNE,4.6,-,0.00,,Overcast,30,2012-12-28 07:53:00
2:53 AM,24.1,21.0,88,30.14,10.0,NNE,4.6,-,N/A,,Overcast,20,2012-12-28 08:53:00
3:25 AM,24.8,21.2,86,30.09,10.0,Calm,Calm,-,N/A,,Overcast,0,2012-12-28 09:25:00
3:53 AM,24.1,19.9,84,30.12,10.0,NNE,5.8,-,N/A,Snow,Light Snow,30,2012-12-28 09:53:00
4:11 AM,24.8,19.4,80,30.07,9.0,NNE,4.6,-,0.00,Snow,Light Snow,30,2012-12-28 10:11:00
4:53 AM,24.8,21.2,86,30.06,2.5,NE,5.8,-,N/A,Snow,Light Snow,40,2012-12-28 10:53:00
5:12 AM,24.8,21.2,86,30.05,3.0,NNE,5.8,-,0.00,Snow,Light Snow,30,2012-12-28 11:12:00
5:37 AM,23.0,21.2,93,30.05,2.5,NNE,5.8,-,N/A,Snow,Light Snow,30,2012-12-28 11:37:00
5:53 AM,23.0,21.9,96,30.09,3.0,NE,4.6,-,0.00,Snow,Light Snow,40,2012-12-28 11:53:00
6:14 AM,24.8,21.2,86,30.06,2.0,NNE,4.6,-,0.00,Snow,Light Snow,30,2012-12-28 12:14:00
6:53 AM,24.1,21.9,91,30.10,1.5,NE,4.6,-,0.00,Snow,Light Snow,50,2012-12-28 12:53:00
7:53 AM,25.0,23.0,92,30.09,1.0,East,3.5,-,0.00,Snow,Light Snow,80,2012-12-28 13:53:00
8:10 AM,24.8,21.2,86,30.05,2.0,East,4.6,-,0.01,Snow,Light Snow,80,2012-12-28 14:10:00
8:21 AM,24.8,21.2,86,30.05,1.5,East,4.6,-,0.01,Snow,Light Snow,90,2012-12-28 14:21:00
8:30 AM,24.8,23.0,93,30.05,1.5,ESE,3.5,-,0.01,Snow,Light Snow,110,2012-12-28 14:30:00
8:48 AM,24.8,23.0,93,30.04,1.2,ENE,4.6,-,0.01,Snow,Light Snow,70,2012-12-28 14:48:00
8:53 AM,25.0,23.0,92,30.09,2.0,ENE,3.5,-,0.01,Snow,Light Snow,70,2012-12-28 14:53:00
9:00 AM,24.8,23.0,93,30.04,1.8,ENE,4.6,-,0.00,Snow,Light Snow,70,2012-12-28 15:00:00
9:08 AM,24.8,21.2,86,30.04,1.5,East,5.8,-,0.00,Snow,Light Snow,80,2012-12-28 15:08:00
9:25 AM,26.6,23.0,86,30.04,1.0,East,3.5,-,0.01,Snow,Light Snow,80,2012-12-28 15:25:00
9:53 AM,26.6,24.8,93,30.05,1.0,ESE,5.8,-,N/A,Snow,Light Snow,120,2012-12-28 15:53:00
9:58 AM,26.6,24.8,93,30.05,0.8,ESE,5.8,-,0.00,Snow,Light Snow,110,2012-12-28 15:58:00
10:28 AM,26.6,24.8,93,30.04,0.8,ESE,5.8,-,0.01,Snow,Light Snow,120,2012-12-28 16:28:00
10:35 AM,26.6,24.8,93,30.03,0.8,ESE,3.5,-,0.02,Snow,Light Snow,120,2012-12-28 16:35:00
10:53 AM,27.0,25.0,92,30.07,0.8,Calm,Calm,-,0.02,Snow,Light Snow,0,2012-12-28 16:53:00
11:24 AM,28.4,26.6,93,30.01,0.8,ESE,3.5,-,0.01,Snow,Light Snow,110,2012-12-28 17:24:00
11:45 AM,28.4,24.8,86,30.00,1.0,SE,6.9,-,0.01,Snow,Light Snow,130,2012-12-28 17:45:00
11:53 AM,28.0,25.0,88,30.03,1.5,SE,4.6,-,0.01,Snow,Light Snow,130,2012-12-28 17:53:00
12:00 PM,28.4,24.8,86,29.99,2.5,SSE,6.9,-,0.00,Snow,Light Snow,160,2012-12-28 18:00:00
12:12 PM,28.4,24.8,86,29.99,4.0,South,6.9,-,0.00,Snow,Light Snow,170,2012-12-28 18:12:00
12:53 PM,28.9,25.0,85,29.99,5.0,South,6.9,-,0.00,Snow,Light Snow,170,2012-12-28 18:53:00
1:20 PM,28.4,24.8,86,29.95,6.0,South,4.6,-,0.00,Snow,Light Snow,170,2012-12-28 19:20:00
1:53 PM,28.9,24.1,82,29.98,4.0,South,4.6,-,0.00,Snow,Light Snow,180,2012-12-28 19:53:00
2:53 PM,28.9,24.1,82,29.97,3.0,Calm,Calm,-,0.00,Snow,Light Snow,0,2012-12-28 20:53:00
3:45 PM,28.4,24.8,86,29.95,2.5,Calm,Calm,-,N/A,Snow,Light Snow,0,2012-12-28 21:45:00
3:53 PM,28.9,25.0,85,29.99,1.8,Calm,Calm,-,0.01,Snow,Light Snow,0,2012-12-28 21:53:00
4:05 PM,28.4,24.8,86,29.95,1.8,Calm,Calm,-,0.00,Snow,Light Snow,0,2012-12-28 22:05:00
4:27 PM,28.4,24.8,86,29.94,1.0,Calm,Calm,-,N/A,Snow,Light Snow,0,2012-12-28 22:27:00
4:53 PM,28.0,26.1,92,29.98,1.0,Calm,Calm,-,0.00,Snow,Light Snow,0,2012-12-28 22:53:00
5:14 PM,28.4,24.8,86,29.94,1.5,Calm,Calm,-,0.01,Snow,Light Snow,0,2012-12-28 23:14:00
5:28 PM,26.6,24.8,93,29.95,1.8,North,3.5,-,N/A,Snow,Light Snow,10,2012-12-28 23:28:00
5:39 PM,26.6,24.8,93,29.94,2.0,Calm,Calm,-,0.01,Snow,Light Snow,0,2012-12-28 23:39:00
5:53 PM,27.0,25.0,92,29.99,2.0,Calm,Calm,-,0.01,Snow,Light Snow,0,2012-12-28 23:53:00
6:30 PM,26.6,24.8,93,29.94,2.0,Calm,Calm,-,0.00,Snow,Light Snow,0,2012-12-29 00:30:00
6:53 PM,27.0,25.0,92,29.98,2.0,North,3.5,-,0.00,Snow,Light Snow,350,2012-12-29 00:53:00
7:53 PM,26.1,24.1,92,29.98,2.5,North,3.5,-,0.00,Snow,Light Snow,360,2012-12-29 01:53:00
8:53 PM,25.0,23.0,92,29.96,2.5,North,3.5,-,0.00,Snow,Light Snow,350,2012-12-29 02:53:00
9:05 PM,24.8,23.0,93,29.92,3.0,North,3.5,-,0.00,Snow,Light Snow,350,2012-12-29 03:05:00
9:11 PM,24.8,23.0,93,29.92,3.0,North,3.5,-,0.00,Snow,Light Snow,350,2012-12-29 03:11:00
9:53 PM,25.0,23.0,92,29.95,4.0,North,3.5,-,0.00,Snow,Light Snow,350,2012-12-29 03:53:00
10:53 PM,24.8,21.2,86,29.90,4.0,NNW,4.6,-,N/A,Snow,Light Snow,340,2012-12-29 04:53:00
11:53 PM,24.1,21.0,88,29.94,4.0,Calm,Calm,-,0.00,Snow,Light Snow,0,2012-12-29 05:53:00